Regional Weather Roundup
Issued by NWS

Home | Current Version | Previous Version | Text Only | Print | Product List | Glossary Off
Versions: 1 2 3 4 5 6 7 8 9 10 11 12 13 14 15 16 17 18 19 20 21 22 23 24 25 26 27 28 29 30 31 32 33 34 35 36 37 38 39 40 41 42 43 44 45 46 47 48 49 50

000
ASUS43 KMKX 020721
RWRWI

WISCONSIN REGIONAL WEATHER ROUNDUP
NATIONAL WEATHER SERVICE MILWAUKEE/SULLIVAN WI
100 AM CST FRI DEC 02 2016

NOTE: "FAIR" INDICATES FEW OR NO CLOUDS BELOW 12,000 FEET WITH NO
SIGNIFICANT WEATHER AND/OR OBSTRUCTIONS TO VISIBILITY.

WIZ001-002-006>008-014>016-023>028-020800-
NORTHWEST WISCONSIN

CITY           SKY/WX    TMP DP  RH WIND       PRES   REMARKS
SUPERIOR ARPT  CLOUDY    30  23  75 NW3       30.03R
ASHLAND        CLOUDY    29  24  82 W13       30.01R WCI  19
HAYWARD        CLOUDY    29  21  72 CALM      30.00R
SIREN          CLOUDY    29  20  69 NW10      30.04R WCI  20
CUMBERLAND     CLOUDY    30  21  69 N9        30.01R WCI  22
RICE LAKE      CLOUDY    30  23  73 NW5       30.03S WCI  25
CHETEK         CLOUDY    30  22  72 NW3       30.02R
LADYSMITH      CLOUDY    30  23  76 NW10G16   30.02R WCI  21
EAU CLAIRE     CLOUDY    32  23  69 NW6       30.01R WCI  26
MENOMONIE      CLOUDY    31  23  71 NW9       30.04R WCI  23
NEW RICHMOND   CLOUDY    30  24  78 NW7       30.04R WCI  23
OSCEOLA        CLOUDY    31  23  72 NW6       30.07R WCI  25
$$

WIZ003>005-009-010-017-018-020800-
NORTH CENTRAL WISCONSIN

CITY           SKY/WX    TMP DP  RH WIND       PRES   REMARKS
MANITOWISH WTR CLOUDY    26  26 100 NW9       29.93R WCI  17
ARBOR VITAE    CLOUDY    29  26  88 NW6       29.93R WCI  23
WOODRUFF       CLOUDY    29  26  88 NW6       29.93R WCI  23
RHINELANDER    CLOUDY    29  23  78 W8        29.93R WCI  21
EAGLE RIVER    LGT SNOW  27  27 100 N9        29.91R WCI  18
LAND O LAKES   CLOUDY    28  24  87 NW7       29.92R WCI  20
PHILLIPS       MIX PCPN  27  25  95 NW5       29.96R WCI  21
TOMAHAWK       CLOUDY    27  23  83 NW5       29.95R WCI  22
MEDFORD        CLOUDY    28  22  78 NW8       29.96R WCI  20
MERRILL        CLOUDY    29  24  80 NW6       29.97R WCI  23
$$

WIZ029-030-035-036-043>047-020800-
CENTRAL WISCONSIN

CITY           SKY/WX    TMP DP  RH WIND       PRES   REMARKS
WAUSAU         CLOUDY    30  23  75 NW12      29.95R WCI  20
MOSINEE        CLOUDY    30  27  86 NW6       29.97R WCI  24
MARSHFIELD     CLOUDY    30  23  75 NW8       29.96R WCI  22
STEVENS POINT  CLOUDY    30  22  72 W7        29.97R WCI  23
WAUPACA        CLOUDY    36  25  66 W6        29.98R WCI  31
WAUTOMA        CLOUDY    33  24  69 NW9       29.98R WCI  25
WISC RAPIDS    CLOUDY    33  23  66 NW8       29.99R WCI  26
CAMP DOUGLAS   CLOUDY    33  28  80 NW12      29.99R WCI  24
$$

WIZ011>013-019>022-031-037>040-048>050-020800-
NORTHEAST WISCONSIN

CITY           SKY/WX    TMP DP  RH WIND       PRES   REMARKS
ANTIGO         CLOUDY    28  22  80 NW8       29.93R WCI  19
SHAWANO        CLOUDY    33  23  66 NW9       29.97R WCI  25
OCONTO         CLOUDY    33  23  66 NW7       29.94R WCI  27
STURGEON BAY   CLOUDY    34  25  69 NW12G17   29.93R WCI  25
GREEN BAY      CLOUDY    36  27  69 W6        29.95R WCI  31
MANITOWOC      CLOUDY    35  26  69 W10       29.95R WCI  27
APPLETON       CLOUDY    32  23  69 NW6       29.94R WCI  26
CLINTONVILLE   CLOUDY    32  23  69 N6        29.97R WCI  26
OSHKOSH        CLOUDY    35  26  69 NW9       29.95R WCI  28
$$

WIZ032>034-041-042-053>061-020800-
SOUTHWEST WISCONSIN

CITY           SKY/WX    TMP DP  RH WIND       PRES   REMARKS
LA CROSSE      CLOUDY    38  30  73 N8        30.01R WCI  32
SPARTA         CLOUDY    35  28  77 W7        30.01R WCI  29
VIROQUA        CLOUDY    33  33 100 W3        29.99R
BOSCOBEL       CLOUDY    38  33  82 SW5       30.01S WCI  34
PRAIRIE DU CHI CLOUDY    37  32  81 W7        30.02R WCI  32
PLATTEVILLE    CLOUDY    35  35 100 W9        30.01R WCI  28
$$

WIZ056-057-062-063-064-067-068-020800-
SOUTH CENTRAL WISCONSIN

CITY           SKY/WX    TMP DP  RH WIND       PRES   REMARKS
REEDSBURG      CLOUDY    34  29  82 NW5       29.99R WCI  30
BARABOO/DELLS  CLOUDY    34  28  76 NW6       29.97S WCI  29
LONE ROCK      LGT RAIN  35  32  88 W7        30.01R FOG     WCI  29
MINERAL POINT  CLOUDY    36  36 100 W8        29.99R WCI  29
MADISON        CLOUDY    35  31  85 VRB5      29.98R WCI  31
MIDDLETON      CLOUDY    37  33  89 W9        29.99R WCI  30
WATERTOWN      CLOUDY    35  33  92 W7        29.96R WCI  29
MONROE         CLOUDY    34  32  93 W8        29.99R WCI  27
JANESVILLE     CLOUDY    36  34  93 W6        29.99R WCI  31
$$

WIZ051-052-058>065-066-070>072-020800-
SOUTHEAST WISCONSIN

CITY           SKY/WX    TMP DP  RH WIND       PRES   REMARKS
MILWAUKEE      DRIZZLE   38  32  79 W7        29.96R WCI  33
WAUKESHA       CLOUDY    34  32  93 W6        29.97R WCI  29
MILWAUKEE/TIMM CLOUDY    36  30  80 W7        29.97R WCI  30
RACINE         CLOUDY    37  32  82 W7        29.99R WCI  32
BURLINGTON     CLOUDY    35  33  90 W8        29.98R WCI  29
KENOSHA        CLOUDY    37  31  78 W13       29.98R WCI  29
FOND DU LAC    CLOUDY    35  26  69 NW9       29.96R WCI  28
SHEBOYGAN      CLOUDY    36  27  69 NW7       29.95R WCI  30
WEST BEND      CLOUDY    34  34 100 W7        29.95R WCI  28
JUNEAU         CLOUDY    33  31  94 W5        29.97R WCI  28
$$

LSZ147-162-020800-
LAKE SUPERIOR

STATION/POSITION TIME  TEMP    WIND        PRES    WAVE
                       AIR SEA DIR/SP/G            HT/PER
                 (UTC) (F)     (DEG/KT/KT) (MB)    (FT/S)
DEVILS ISLAND    0700   31     340/ 13/ 15 1016.9R
PORT WING        0630   32     340/ 12/ 15 1016.3R
SAXON HARBOR     0630   33     320/ 10/ 14 1015.2R
$$

LMZ867-665-643>646-020800-
LAKE MICHIGAN

STATION/POSITION TIME  TEMP    WIND        PRES    WAVE
                       AIR SEA DIR/SP/G            HT/PER
                 (UTC) (F)     (DEG/KT/KT) (MB)    (FT/S)
CHAMBERS ISLAND  0640   34     290/  7/ 14 1012.9R
NORTHPORT PIER   0640   35     300/ 13/ 19 1012.9R
SISTER BAY       0638   35     320/ 20/ 23   N/A
ALGOMA LAKESHORE 0651          330/  8/ 12   N/A
KEWAUNEE LAKESHO 0700   35     300/  6/ 11 1013.3
SHEBOYGAN LAKESH 0700   37     300/  8/ 10 1014.4R
PORT WASHINGTON  0640   37     300/  4/  7 1015.2R
MILWAUKEE LAKESH 0700   38     250/  9/ 11   N/A
S MID LAKE BUOY  0650   41 49  260/ 19/ 21 1014.2R   4/ 5
KENOSHA   LAKESH 0700   38     240/  9/ 12 1015.2
$$

TC  - TEMPERATURE IN CELSIUS
VSB - VISIBILITY IN STATUTE MILES
WCI - WIND CHILL INDEX
HX  - HEAT INDEX





USA.gov is the U.S. government's official web portal to all federal, state and local government web resources and services.